Погода в Бодеевке

Россия / Воронежская область     51°07′10″N   39°16′54″E
темп.,
°C
ветер,
м/с
пор.,
м/с
влажн.,
%
обл.,
%
осадки,
мм/ч
давл.,
гПа
погр.,
м
20 апреля, вт
вт2000:00+8в35815 0.0 1015103
03:00+7в389667 0.0 1014203
06:00+7всв4996100 0.1 1013318
09:00+9в6989100 0.1 1012697
12:00+10в7982100 0.1 1010789
15:00+9всв71190100 1.4 1008670
18:00+7всв81495100 7.9 1004668
21:00+9вюв5996100 15.5 1002380
21 апреля, ср
ср2100:00+10ююв61292100 0.6 1001394
03:00+9ю71286100 1.1 1002846
06:00+9ююз4891100 0.3 1003560
09:00+7зюз5990100 0.4 1008688
12:00+8юз5986100 0.1 1011926
15:00+12зюз6970100 0.2 10121331
18:00+12зюз69635 0.6 1013951
21:00+8ююз377986 0.6 1015139
22 апреля, чт
чт2200:00+7ююз378782 0.6 1016186
03:00+6ююз36945 1.0 1017140
06:00+5юз36935 0.0 1019138
09:00+11юз46685 0.0 1020565
12:00+14юз46526 0.0 10201536
15:00+15юз4746100 0.0 10202004
18:00+14ююз3563100 0.1 1020333
21:00+11ю327112 0.1 102132
23 апреля, пт
пт2300:00+11ю2372100 0.0 102051
03:00+11ю3471100 0.0 102079
06:00+10ю2572100 0.0 1020114
09:00+14ю476188 0.0 1020403
12:00+17ю574399 0.0 10192541
15:00+16ююз5853100 0.0 1018867
18:00+15ююв595746 0.2 1017591
21:00+12ю5126758 0.4 1017267
24 апреля, сб
сб2400:00+12ю31066100 0.0 1015282
03:00+10ююз378010 0.1 1014147
06:00+9ю3984100 0.0 1013269
09:00+10зюз6883100 0.3 1013778
12:00+5зсз5890100 2.8 1015597
15:00+11з4656100 2.9 10141582
18:00+10з3658100 0.8 1014461
21:00+7зюз5107275 0.9 1015229